Welcome to the New NWS' Forecast!
Most changes are behind the scenes, but click here for differences you might notice.

Regional Weather Roundup (RWR)

Issued by Eureka, CA (EKA)

                            
000
ASUS46 KEKA 201213
RWREKA
Eureka Area Weather Roundup
National Weather Service Eureka CA
500 AM PDT MON AUG 20 2018

Note: "fair" indicates few or no clouds below 12,000 feet with no
significant weather and/or obstructions to visibility.

Southwest Oregon...
  
CITY           SKY/WX    TMP DP  RH WIND       PRES   REMARKS
MEDFORD        CLEAR     57  45  64 CALM      30.00R                  
KLAMATH FALLS  CLEAR     44  40  85 N3        30.08R                  
NORTH BEND     CLOUDY    57  55  93 N8        30.06R                  
ROSEBURG       CLEAR     58  51  78 CALM      30.02S                  
SEXTON SUMMIT  CLEAR     60  47  61 NE7       30.08S                  
BROOKINGS      CLOUDY    54  53  97 CALM      29.97S FOG              

Northwest California...
  
CITY           SKY/WX    TMP DP  RH WIND       PRES   REMARKS
CRESCENT CITY  CLOUDY    55  54  96 CALM      29.97S                  
MCKINLEYVILLE  CLOUDY    53  53 100 NW3       29.94S FOG              
EUREKA         CLOUDY    54  50  87 CALM      29.94F FOG              
FORTUNA        CLOUDY    54  54 100 CALM      29.95S                  
WEAVERVILLE    CLOUDY    54  37  54 CALM      29.99R                  
TRINITY CENTER NOT AVBL                                               
UKIAH          CLEAR     57  45  64 CALM      29.86R                  

North & Central California...
  
CITY           SKY/WX    TMP DP  RH WIND       PRES   REMARKS
YREKA          CLEAR     50  32  50 NE3       30.03R                  
MOUNT SHASTA   CLEAR     51  36  56 CALM      30.04S                  
REDDING        CLEAR     67  50  54 CALM      29.83S                  
RED BLUFF      CLEAR     66  46  48 W5        29.83S                  
CHICO          CLOUDY    72  39  30 CALM      29.83S                  
YUBA CITY      CLEAR     62  50  64 E3        29.82R                  
SACRAMENTO     CLEAR     59  54  83 S5        29.81S                  
SANTA ROSA     SMOKE     50  50 100 CALM      29.86S VSB 1/2          
NAPA           CLOUDY    58  54  86 S13       29.87R                  
SAN FRANCISCO  PTCLDY    56  52  86 W6        29.88S                  
OAKLAND        CLOUDY    58  54  86 W9        29.89R                  
SALINAS        CLOUDY    56  52  86 SW6       29.91S FOG              
MONTEREY       CLOUDY    56  54  93 SW6       29.92S                  

$$
  

515 
ASUS46 KEKA 201213
RWREKA
Eureka Area Weather Roundup
National Weather Service Eureka CA
500 AM PDT MON AUG 20 2018

Note: "fair" indicates few or no clouds below 12,000 feet with no
significant weather and/or obstructions to visibility.

Southwest Oregon...
  
CITY           SKY/WX    TMP DP  RH WIND       PRES   REMARKS
MEDFORD        CLEAR     57  45  64 CALM      30.00R                  
KLAMATH FALLS  CLEAR     44  40  85 N3        30.08R                  
NORTH BEND     CLOUDY    57  55  93 N8        30.06R                  
ROSEBURG       CLEAR     58  51  78 CALM      30.02S                  
SEXTON SUMMIT  CLEAR     60  47  61 NE7       30.08S                  
BROOKINGS      CLOUDY    54  53  97 CALM      29.97S FOG              

Northwest California...
  
CITY           SKY/WX    TMP DP  RH WIND       PRES   REMARKS
CRESCENT CITY  CLOUDY    55  54  96 CALM      29.97S                  
MCKINLEYVILLE  CLOUDY    53  53 100 NW3       29.94S FOG              
EUREKA         CLOUDY    54  50  87 CALM      29.94F FOG              
FORTUNA        CLOUDY    54  54 100 CALM      29.95S                  
WEAVERVILLE    CLOUDY    54  37  54 CALM      29.99R                  
TRINITY CENTER NOT AVBL                                               
UKIAH          CLEAR     57  45  64 CALM      29.86R                  

North & Central California...
  
CITY           SKY/WX    TMP DP  RH WIND       PRES   REMARKS
YREKA          CLEAR     50  32  50 NE3       30.03R                  
MOUNT SHASTA   CLEAR     51  36  56 CALM      30.04S                  
REDDING        CLEAR     67  50  54 CALM      29.83S                  
RED BLUFF      CLEAR     66  46  48 W5        29.83S                  
CHICO          CLOUDY    72  39  30 CALM      29.83S                  
YUBA CITY      CLEAR     62  50  64 E3        29.82R                  
SACRAMENTO     CLEAR     59  54  83 S5        29.81S                  
SANTA ROSA     SMOKE     50  50 100 CALM      29.86S VSB 1/2          
NAPA           CLOUDY    58  54  86 S13       29.87R                  
SAN FRANCISCO  PTCLDY    56  52  86 W6        29.88S                  
OAKLAND        CLOUDY    58  54  86 W9        29.89R                  
SALINAS        CLOUDY    56  52  86 SW6       29.91S FOG              
MONTEREY       CLOUDY    56  54  93 SW6       29.92S                  

$$